Hourly Data Report for December 28, 2020

L'ASSOMPTION
QUEBEC
Current Station Operator: ECCC - MSC

45°48'34.000" N
73°26'05.000" W
21.00 m
7014160
71524
WEW

Download Data

Hourly Data (December 2020)
Hourly Data Report for December 28, 2020
TIME
LST
Temp Definition
°C
Dew Point Definition
°C
Rel Hum Definition
%
Precip. Amount Definition
mm

Wind Dir Definition
10's deg

Wind Spd Definition
km/h
Visibility Definition
km
Stn Press Definition
kPa
Hmdx Definition


Wind Chill Definition


Weather Definition


00:00 -4.5 -8.3 75 0.0 6 10   102.02   -9 LegendNANA
01:00 -4.2 -8.1 74 0.0 5 10   101.86   -8 LegendNANA
02:00 -3.7 -7.4 76 0.0 6 9   101.77   -7 LegendNANA
03:00 -3.5 -6.9 78 0.0 6 12   101.59   -8 LegendNANA
04:00 -3.0 -6.3 78 0.0 5 9   101.43   -7 LegendNANA
05:00 -2.8 -5.9 79 0.0 5 10   101.34   -7 LegendNANA
06:00 -1.9 -5.2 78 0.0 8 8   101.25   -5 LegendNANA
07:00 1.1 -5.4 62 0.0 15 14   101.14     LegendNANA
08:00 1.6 -5.1 61 0.0 16 24   101.05     LegendNANA
09:00 1.9 -4.4 63 0.0 16 29   100.97     LegendNANA
10:00 2.2 -3.6 65 0.0 17 24   100.95     LegendNANA
11:00 1.8 -1.6 78 0.0 17 19   100.87     LegendNANA
12:00 0.8 0.0 94 0.7 16 22   100.71     LegendNANA
13:00 1.5 0.3 91 0.6 17 23   100.61     LegendNANA
14:00 2.5 0.7 88 0.6 17 20   100.57     LegendNANA
15:00 3.0 0.9 86 0.5 18 19   100.65     LegendNANA
16:00 3.9 1.2 82 0.0 21 28   100.74     LegendNANA
17:00 3.7 0.7 81 0.0 21 24   100.85     LegendNANA
18:00 3.6 0.0 77 0.0 22 27   100.93     LegendNANA
19:00 2.7 -1.7 73 0.0 23 25   101.06     LegendNANA
20:00 1.3 -3.0 73 0.0 22 25   101.15     LegendNANA
21:00 0.6 -3.0 76 0.0 23 21   101.27     LegendNANA
22:00 0.2 -3.9 74 0.0 25 17   101.37     LegendNANA
23:00 -0.7 -5.9 68 0.0 27 16   101.42   -5 LegendNANA

Notes on Data Quality.

Legend

  • E = Estimated
  • M = Missing
  • NA = Not Available*
  • [empty] = Indicates an unobserved value
Date modified: